Starlink 32958

operational
NORAD ID: 63563 Int'l Des: 2025-075 Owner: SPXS Country: US Constellation: starlink
LEOCIRCULAR

Über Starlink 32958

Beschreibung wird geladen...

Live-Position

3D-Globus wird geladen...

Nächste Überflüge

Höhenverlauf

Altitude vs Time

uPlot chart will show altitude changes over time

Zweizeiliger Elementsatz

1 63563U 25075R 25304.98378070 .00021952 00000-0 80569-3 0 9998
2 63563 43.0029 277.4874 0001261 280.0142 80.0567 15.27546079 32242
Epoch: 31. Okt. 2025 • Age: 35 hours

Aktueller Status

Höhe 486.6 km
Geschwindigkeit 7.63 km/s
Subsatellitenpunkt 41.48°N, 177.92°E
Startdatum 13. Apr. 2025
Alter 0.5 years
Typ internet

Technische Details

Klassifizierung Payload
Masse 730.00 kg
Trockenmasse 700.00 kg
Gesamtmasse 730.00 kg
Länge 0.30 m
Durchmesser 4.10 m
Spannweite 29.00 m
Form Box + pan
Hersteller SPXS
Bus-Typ Starlink V2M
Phasenstatus In Orbit
Besitzer/Staat SPXS/US

Große Konstellationen

Loading constellations...